BREEZE-M DEB (TANK), 27821

Orbit data source: Space-Track

BREEZE-M DEB (TANK), 27821 is space debris in HEO originally from a launch on Fri, 06 Jun 2003 UTC launched from the Tyuratam Missile And Space Complex (TTMTR). Debris objects in space refer to the collection of defunct objects orbiting the Earth. Examples of debris include non-operational satellites, rocket bodies, and fragments generated from explosions, collisions, or faulty payload assembly.

Loading next visibility...
Identifier
27821, 2003-024B
Orbit
HEO
Country
Flag of CISCIS
Related business
Manufacturer
Khrunichev
Mission
Spacecraft
Bus & Motor
BRIZ TANK, Unknown motor
Mass
~1,000 kg wet, 1,000 kg dry
Launch date (UTC)
2003-06-06 (23 years ago)
Launch vehicle
Unknown
Launch site
Tyuratam Missile And Space Complex (TTMTR)
Object type
Payload
Rocket body
Debris
Shape & HBR
Torus, 2.0 m
Radar Cross Section
8.218 m², Large (>1 m²)

Expand to show TLE details & history
Last TLE update: 14 hours ago

TLE from 14 hours ago
0 BREEZE-M DEB (TANK)
1 27821U 03024B   26194.55454287  .00007596  00000-0  50465-3 0  9991
2 27821  49.4764  53.9793 4692359 145.5793 256.5220  6.20689771476458
Epoch: 2026-07-13T13:18Z
TLE epoch observation values (Epoch: 2026-07-13T13:18:32.503Z)
Latitude
Longitude
-77.08408°
Altitude
9,526.344 km
Speed
4.273 km/s
True Right ascension
03h 35m 57s
True Declination
0° 00' 00"
Sunlit
Object was in daylight at epoch
Visualization orbit readout
Latitude
Unknown
Longitude
Unknown
Altitude
Unknown
Speed
Unknown
Apparent Right ascension
Unknown
Apparent Declination
Unknown
Sunlit
N/A
Visualization observer readout
Local Sidereal Time
15:31:38
Azimuth
Unknown
Elevation
Unknown
Doppler factor
Unknown
Orbital elements
Apogee altitude
11,998.565 km
Perigee altitude
260.48 km
Semi-major axis
12,507.659 km
Eccentricity
0.46924
Inclination
49.4764°
RAAN
53.9793°
Arg. of periapsis
145.5793°
True anomaly
214.47385°
Mean anomaly
256.522°
Eccentric anomaly
234.60558°
Mean motion
1.5516 °/min
Orbital period
232.02 mins
BSTAR
0.00050465
Loading maneuver chart data...
Computing Atmospheric mass density...
Loading historical data...
Loading historical data...
Loading historical data...
Loading historical data...
Loading historical data...
Loading historical data...
Loading historical data...
Other satellites on launch #24 in the year 2003 (2003-06-06 UTC)

Documentation

Showing up to 5 results
|